H1 CPF 2 NER 2023 10 17 9 290 01 glonass143 H2 2007501 9143 46805 2023 10 17 0 0 0 2023 10 20 23 45 0 900 1 1 0 0 0 1 H9 10 0 60234 0.00000 0 23685461.368 9316547.012 -1551219.604 10 0 60234 900.00000 0 23359596.606 9058416.638 -4734387.960 10 0 60234 1800.00000 0 22640834.538 8731492.645 -7825466.780 10 0 60234 2700.00000 0 21534690.309 8392001.378 -10764318.237 10 0 60234 3600.00000 0 20059875.685 8094774.952 -13493761.890 10 0 60234 4500.00000 0 18247664.444 7890725.292 -15960693.631 10 0 60234 5400.00000 0 16140744.785 7824494.636 -18117124.117 10 0 60234 6300.00000 0 13791606.493 7932382.849 -19921115.996 10 0 60234 7200.00000 0 11260530.241 8240639.973 -21337601.442 10 0 60234 8100.00000 0 8613263.027 8764196.850 -22339064.114 10 0 60234 9000.00000 0 5918476.733 9505887.881 -22906072.517 10 0 60234 9900.00000 0 3245115.756 10456199.143 -23027654.710 10 0 60234 10800.00000 0 659743.952 11593552.801 -22701507.542 10 0 60234 11700.00000 0 -1775999.048 12885116.086 -21934036.761 10 0 60234 12600.00000 0 -4007726.918 14288101.063 -20740227.607 10 0 60234 13500.00000 0 -5990325.019 15751500.737 -19143348.692 10 0 60234 14400.00000 0 -7689575.190 17218188.699 -17174495.122 10 0 60234 15300.00000 0 -9083320.524 18627294.245 -14871979.877 10 0 60234 16200.00000 0 -10162123.064 19916753.228 -12280585.346 10 0 60234 17100.00000 0 -10929388.601 21025927.552 -9450689.653 10 0 60234 18000.00000 0 -11400955.072 21898183.183 -6437284.867 10 0 60234 18900.00000 0 -11604163.560 22483318.324 -3298906.366 10 0 60234 19800.00000 0 -11576452.591 22739739.637 -96494.349 10 0 60234 20700.00000 0 -11363536.354 22636295.023 3107790.070 10 0 60234 21600.00000 0 -11017244.874 22153685.933 6251770.968 10 0 60234 22500.00000 0 -10593118.205 21285399.856 9274462.337 10 0 60234 23400.00000 0 -10147856.831 20038123.845 12117247.938 10 0 60234 24300.00000 0 -9736736.262 18431621.651 14725013.554 10 0 60234 25200.00000 0 -9411095.007 16498079.404 17047210.010 10 0 60234 26100.00000 0 -9216001.807 14280946.878 19038826.840 10 0 60234 27000.00000 0 -9188200.204 11833322.188 20661258.436 10 0 60234 27900.00000 0 -9354416.833 9215946.492 21883046.653 10 0 60234 28800.00000 0 -9730104.462 6494891.264 22680486.237 10 0 60234 29700.00000 0 -10318672.737 3739033.160 23038082.007 10 0 60234 30600.00000 0 -11111239.283 1017420.100 22948849.401 10 0 60234 31500.00000 0 -12086912.257 -1603363.357 22414452.738 10 0 60234 32400.00000 0 -13213593.422 -4061723.284 21445178.386 10 0 60234 33300.00000 0 -14449269.208 -6303372.574 20059742.916 10 0 60234 34200.00000 0 -15743736.828 -8283340.813 18284939.192 10 0 60234 35100.00000 0 -17040694.259 -9967595.097 16155126.362 10 0 60234 36000.00000 0 -18280107.436 -11334204.944 13711572.564 10 0 60234 36900.00000 0 -19400755.985 -12374003.144 11001662.102 10 0 60234 37800.00000 0 -20342850.925 -13090715.315 8077981.600 10 0 60234 38700.00000 0 -21050614.206 -13500553.047 4997302.239 10 0 60234 39600.00000 0 -21474711.041 -13631288.078 1819477.564 10 0 60234 40500.00000 0 -21574431.797 -13520846.877 -1393721.705 10 0 60234 41400.00000 0 -21319530.388 -13215485.429 -4579812.845 10 0 60234 42300.00000 0 -20691640.433 -12767621.970 -7676822.187 10 0 60234 43200.00000 0 -19685208.189 -12233420.070 -10624497.496 10 0 60234 44100.00000 0 -18307901.683 -11670225.196 -13365487.233 10 0 60234 45000.00000 0 -16580477.708 -11133964.153 -15846462.864 10 0 60234 45900.00000 0 -14536111.346 -10676618.314 -18019161.694 10 0 60234 46800.00000 0 -12219215.396 -10343878.354 -19841329.496 10 0 60234 47700.00000 0 -9683798.718 -10173080.267 -21277544.265 10 0 60234 48600.00000 0 -6991431.751 -10191510.383 -22299905.167 10 0 60234 49500.00000 0 -4208903.927 -10415151.235 -22888573.454 10 0 60234 50400.00000 0 -1405670.457 -10847921.364 -23032155.178 10 0 60234 51300.00000 0 1348805.443 -11481441.126 -22727918.705 10 0 60234 52200.00000 0 3987704.687 -12295334.350 -21981843.227 10 0 60234 53100.00000 0 6449388.966 -13258053.055 -20808497.694 10 0 60234 54000.00000 0 8679717.147 -14328190.412 -19230752.826 10 0 60234 54900.00000 0 10634045.960 -15456226.609 -17279331.978 10 0 60234 55800.00000 0 12278832.740 -16586634.027 -14992209.745 10 0 60234 56700.00000 0 13592774.760 -17660253.046 -12413870.057 10 0 60234 57600.00000 0 14567439.073 -18616838.354 -9594438.268 10 0 60234 58500.00000 0 15207358.087 -19397668.429 -6588704.249 10 0 60234 59400.00000 0 15529588.562 -19948108.185 -3455055.623 10 0 60234 60300.00000 0 15562754.156 -20220016.731 -254342.090 10 0 60234 61200.00000 0 15345613.304 -20173898.720 2951306.793 10 0 60234 62100.00000 0 14925214.039 -19780708.607 6099687.201 10 0 60234 63000.00000 0 14354714.608 -19023231.753 9129726.397 10 0 60234 63900.00000 0 13690962.543 -17896984.182 11982664.385 10 0 60234 64800.00000 0 12991934.756 -16410592.942 14603189.053 10 0 60234 65700.00000 0 12314146.750 -14585640.826 16940503.120 10 0 60234 66600.00000 0 11710140.040 -12455981.427 18949302.681 10 0 60234 67500.00000 0 11226153.302 -10066552.505 20590649.054 10 0 60234 68400.00000 0 10900074.876 -7471736.297 21832717.828 10 0 60234 69300.00000 0 10759762.297 -4733333.982 22651411.315 10 0 60234 70200.00000 0 10821799.226 -1918237.348 23030823.227 10 0 60234 71100.00000 0 11090741.822 904107.026 22963547.059 10 0 60234 72000.00000 0 11558886.406 3664337.160 22450822.371 10 0 60234 72900.00000 0 12206568.576 6295810.504 21502516.064 10 0 60234 73800.00000 0 13002981.927 8737126.158 20136938.524 10 0 60234 74700.00000 0 13907482.881 10934430.810 18380497.522 10 0 60234 75600.00000 0 14871327.792 12843413.452 16267195.633 10 0 60234 76500.00000 0 15839770.262 14430906.524 13837979.866 10 0 60234 77400.00000 0 16754431.181 15676027.174 11139955.132 10 0 60234 78300.00000 0 17555842.216 16570811.274 8225475.934 10 0 60234 79200.00000 0 18186055.713 17120313.880 5151133.249 10 0 60234 80100.00000 0 18591210.659 17342172.135 1976655.989 10 0 60234 81000.00000 0 18723945.789 17265649.248 -1236251.592 10 0 60234 81900.00000 0 18545557.027 16930200.205 -4425113.629 10 0 60234 82800.00000 0 18027806.901 16383620.214 -7527903.445 10 0 60234 83700.00000 0 17154308.238 15679854.703 -10484256.883 10 0 60234 84600.00000 0 15921422.352 14876564.200 -13236653.713 10 0 60234 85500.00000 0 14338632.513 14032547.801 -15731543.240 10 0 60235 0.00000 0 12428375.988 13205135.063 -17920391.369 10 0 60235 900.00000 0 10225339.542 12447656.793 -19760629.338 10 0 60235 1800.00000 0 7775249.788 11807103.252 -21216482.568 10 0 60235 2700.00000 0 5133204.941 11322067.550 -22259667.379 10 0 60235 3600.00000 0 2361619.679 11021062.254 -22869939.244 10 0 60235 4500.00000 0 -472132.501 10921279.717 -23035483.460 10 0 60235 5400.00000 0 -3298281.404 11027848.219 -22753140.879 10 0 60235 6300.00000 0 -6047320.519 11333614.902 -22028464.749 10 0 60235 7200.00000 0 -8652655.416 11819464.234 -20875607.921 10 0 60235 8100.00000 0 -11053130.628 12455158.112 -19317042.939 10 0 60235 9000.00000 0 -13195330.650 13200661.815 -17383120.652 10 0 60235 9900.00000 0 -15035560.156 14007899.520 -15111476.056 10 0 60235 10800.00000 0 -16541422.016 14822865.041 -12546293.008 10 0 60235 11700.00000 0 -17692928.528 15587998.512 -9737442.154 10 0 60235 12600.00000 0 -18483100.782 16244728.489 -6739508.957 10 0 60235 13500.00000 0 -18918032.563 16736071.993 -3610730.878 10 0 60235 14400.00000 0 -19016417.608 17009182.591 -411864.564 10 0 60235 15300.00000 0 -18808561.538 17017738.782 2794994.664 10 0 60235 16200.00000 0 -18334921.358 16724071.819 5947617.844 10 0 60235 17100.00000 0 -17644235.120 16100943.027 8984848.351 10 0 60235 18000.00000 0 -16791321.413 15132895.579 11847785.315 10 0 60235 18900.00000 0 -15834641.945 13817123.549 14480921.611 10 0 60235 19800.00000 0 -14833730.106 12163821.352 16833214.695 10 0 60235 20700.00000 0 -13846593.737 10195998.328 18859069.953 10 0 60235 21600.00000 0 -12927201.039 7948765.504 20519218.203 10 0 60235 22500.00000 0 -12123154.814 5468123.342 21781471.107 10 0 60235 23400.00000 0 -11473652.142 2809299.861 22621340.595 10 0 60235 24300.00000 0 -11007814.561 34706.988 23022510.987 10 0 60235 25200.00000 0 -10743458.303 -2788401.405 22977155.154 10 0 60235 26100.00000 0 -10686355.914 -5590473.982 22486088.798 10 0 60235 27000.00000 0 -10830020.149 -8302304.842 21558759.769 10 0 60235 27900.00000 0 -11156019.434 -10857666.501 20213072.210 10 0 60235 28800.00000 0 -11634812.092 -13195824.802 18475048.228 10 0 60235 29700.00000 0 -12227064.885 -15263832.195 16378332.743 10 0 60235 30600.00000 0 -12885401.103 -17018504.656 13963550.070 10 0 60235 31500.00000 0 -13556505.228 -18428000.288 11277523.720 10 0 60235 32400.00000 0 -14183495.933 -19472933.931 8372373.672 10 0 60235 33300.00000 0 -14708467.514 -20146981.266 5304507.960 10 0 60235 34200.00000 0 -15075092.278 -20456947.103 2133527.859 10 0 60235 35100.00000 0 -15231173.443 -20422295.090 -1078932.068 10 0 60235 36000.00000 0 -15131039.774 -20074158.759 -4270406.203 10 0 60235 36900.00000 0 -14737679.595 -19453875.887 -7378818.366 10 0 60235 37800.00000 0 -14024522.635 -18611108.441 -10343696.045 10 0 60235 38700.00000 0 -12976793.003 -17601628.052 -13107353.870 10 0 60235 39600.00000 0 -11592374.730 -16484861.190 -15616022.455 10 0 60235 40500.00000 0 -9882152.046 -15321298.405 -17820899.904 10 0 60235 41400.00000 0 -7869808.771 -14169877.633 -19679105.067 10 0 60235 42300.00000 0 -5591094.213 -13085452.462 -21154513.702 10 0 60235 43200.00000 0 -3092585.414 -12116452.465 -22218461.238 10 0 60235 44100.00000 0 -429996.769 -11302834.213 -22850298.731 10 0 60235 45000.00000 0 2333892.940 -10674409.132 -23037791.464 10 0 60235 45900.00000 0 5131610.185 -10249618.173 -22777352.924 10 0 60235 46800.00000 0 7893554.792 -10034804.273 -22074109.995 10 0 60235 47700.00000 0 10550660.008 -10024012.497 -20941798.508 10 0 60235 48600.00000 0 13037034.431 -10199325.486 -19402491.473 10 0 60235 49500.00000 0 15292476.431 -10531719.257 -17486165.456 10 0 60235 50400.00000 0 17264757.074 -10982402.548 -15230113.700 10 0 60235 51300.00000 0 18911577.281 -11504582.525 -12678217.470 10 0 60235 52200.00000 0 20202118.543 -12045581.746 -9880089.836 10 0 60235 53100.00000 0 21118123.535 -12549216.525 -6890108.694 10 0 60235 54000.00000 0 21654462.637 -12958335.780 -3766357.956 10 0 60235 54900.00000 0 21819163.957 -13217412.787 -569497.685 10 0 60235 55800.00000 0 21632906.878 -13275080.039 2638414.575 10 0 60235 56700.00000 0 21128001.679 -13086499.886 5795128.157 10 0 60235 57600.00000 0 20346899.238 -12615470.645 8839405.759 10 0 60235 58500.00000 0 19340294.398 -11836179.102 11712208.513 10 0 60235 59400.00000 0 18164903.442 -10734525.242 14357836.783 10 0 60235 60300.00000 0 16881009.461 -9308963.067 16725004.821 10 0 60235 61200.00000 0 15549878.839 -7570821.629 18767828.947 10 0 60235 62100.00000 0 14231157.109 -5544092.046 20446710.704 10 0 60235 63000.00000 0 12980352.961 -3264688.411 21729098.675 10 0 60235 63900.00000 0 11846515.243 -779212.292 22590114.900 10 0 60235 64800.00000 0 10870199.569 1856729.092 23013034.478 10 0 60235 65700.00000 0 10081808.911 4580582.570 22989609.529 10 0 60235 66600.00000 0 9500377.103 7325202.535 22520231.486 10 0 60235 67500.00000 0 9132845.687 10021402.118 21613928.487 10 0 60235 68400.00000 0 8973864.189 12600597.521 20288197.522 10 0 60235 69300.00000 0 9006122.183 14997436.958 18568673.902 10 0 60235 70200.00000 0 9201199.392 17152305.905 16488643.543 10 0 60235 71100.00000 0 9520898.408 19013605.182 14088406.519 10 0 60235 72000.00000 0 9919004.313 20539707.308 11414503.182 10 0 60235 72900.00000 0 10343397.345 21700509.661 8518817.022 10 0 60235 73800.00000 0 10738429.581 22478519.466 5457570.959 10 0 60235 74700.00000 0 11047465.145 22869424.999 2290236.281 10 0 60235 75600.00000 0 11215476.078 22882128.894 -921624.640 10 0 60235 76500.00000 0 11191583.359 22538242.063 -4115559.018 10 0 60235 77400.00000 0 10931434.495 21871059.554 -7229443.782 10 0 60235 78300.00000 0 10399315.848 20924061.732 -10202700.616 10 0 60235 79200.00000 0 9569908.947 19749004.301 -12977481.467 10 0 60235 80100.00000 0 8429615.112 18403678.224 -15499800.543 10 0 60235 81000.00000 0 6977391.030 16949434.582 -17720590.094 10 0 60235 81900.00000 0 5225058.688 15448579.215 -19596658.931 10 0 60235 82800.00000 0 3197075.388 13961747.426 -21091534.699 10 0 60235 83700.00000 0 929772.415 12545369.518 -22176173.539 10 0 60235 84600.00000 0 -1529906.684 11249333.877 -22829523.482 10 0 60235 85500.00000 0 -4126116.198 10114945.638 -23038930.951 10 0 60236 0.00000 0 -6796195.698 9173266.333 -22800382.951 10 0 60236 900.00000 0 -9473049.801 8443903.065 -22118580.441 10 0 60236 1800.00000 0 -12087717.973 7934298.361 -21006842.279 10 0 60236 2700.00000 0 -14572032.571 7639547.849 -19486841.511 10 0 60236 3600.00000 0 -16861251.413 7542753.535 -17588179.535 10 0 60236 4500.00000 0 -18896557.120 7615896.172 -15347806.533 10 0 60236 5400.00000 0 -20627319.469 7821188.976 -12809299.504 10 0 60236 6300.00000 0 -22013027.065 8112854.634 -10022011.994 10 0 60236 7200.00000 0 -23024808.476 8439249.733 -7040112.173 10 0 60236 8100.00000 0 -23646480.122 8745246.190 -3921528.097 10 0 60236 9000.00000 0 -23875078.097 8974768.432 -726820.829 10 0 60236 9900.00000 0 -23720852.662 9073378.606 2481992.371 10 0 60236 10800.00000 0 -23206726.734 8990800.159 5642641.727 10 0 60236 11700.00000 0 -22367242.121 8683272.845 8693811.923 10 0 60236 12600.00000 0 -21247038.605 8115639.419 11576328.822 10 0 60236 13500.00000 0 -19898930.451 7263075.716 14234303.006 10 0 60236 14400.00000 0 -18381661.485 6112390.835 16616208.242 10 0 60236 15300.00000 0 -16757433.066 4662842.259 18675874.383 10 0 60236 16200.00000 0 -15089308.412 2926430.994 20373376.131 10 0 60236 17100.00000 0 -13438601.570 927663.429 21675801.176 10 0 60236 18000.00000 0 -11862359.616 -1297211.225 22557883.564 10 0 60236 18900.00000 0 -10411042.589 -3701457.490 23002490.726 10 0 60236 19800.00000 0 -9126497.210 -6229553.306 23000955.224 10 0 60236 20700.00000 0 -8040308.250 -8819263.748 22553245.032 10 0 60236 21600.00000 0 -7172595.661 -11404004.142 21667968.998 10 0 60236 22500.00000 0 -6531307.188 -13915395.933 20362216.981 10 0 60236 23400.00000 0 -6112035.690 -16285910.365 18661237.111 10 0 60236 24300.00000 0 -5898368.600 -18451491.115 16597955.521 10 0 60236 25200.00000 0 -5862754.824 -20354047.497 14212346.852 10 0 60236 26100.00000 0 -5967852.703 -21943714.695 11550666.738 10 0 60236 27000.00000 0 -6168302.331 -23180786.824 8664560.266 10 0 60236 27900.00000 0 -6412847.514 -24037241.875 5610063.036 10 0 60236 28800.00000 0 -6646717.535 -24497794.301 2446513.858 10 0 60236 29700.00000 0 -6814167.666 -24560430.756 -764599.796 10 0 60236 30600.00000 0 -6861070.237 -24236406.087 -3960840.900 10 0 60236 31500.00000 0 -6737445.621 -23549699.476 -7080042.591 10 0 60236 32400.00000 0 -6399824.858 -22535953.570 -10061524.004 10 0 60236 33300.00000 0 -5813342.568 -21240941.331 -12847277.736 10 0 60236 34200.00000 0 -4953470.215 -19718625.467 -15383104.946 10 0 60236 35100.00000 0 -3807315.069 -18028892.548 -17619675.299 10 0 60236 36000.00000 0 -2374428.627 -16235057.603 -19513490.622 10 0 60236 36900.00000 0 -667089.185 -14401244.604 -21027733.201 10 0 60236 37800.00000 0 1289954.512 -12589753.174 -22132982.205 10 0 60236 38700.00000 0 3460268.826 -10858522.185 -22807784.473 10 0 60236 39600.00000 0 5797017.915 -9258796.513 -23039068.871 10 0 60236 40500.00000 0 8244690.668 -7833094.353 -22822396.602 10 0 60236 41400.00000 0 10741200.375 -6613559.528 -22162043.027 10 0 60236 42300.00000 0 13220270.024 -5620766.935 -21070909.789 10 0 60236 43200.00000 0 15614004.204 -4863029.963 -19570269.272 10 0 60236 44100.00000 0 17855540.822 -4336237.653 -17689346.560 10 0 60236 45000.00000 0 19881672.440 -4024226.997 -15464747.178 10 0 60236 45900.00000 0 21635328.312 -3899673.335 -12939741.819 10 0 60236 46800.00000 0 23067813.993 -3925460.004 -10163422.024 10 0 60236 47700.00000 0 24140715.459 -4056468.303 -7189743.348 10 0 60236 48600.00000 0 24827388.743 -4241711.172 -4076474.760 10 0 60236 49500.00000 0 25113973.451 -4426719.550 -884074.852 10 0 60236 50400.00000 0 24999888.453 -4556079.871 2325482.998 10 0 60236 51300.00000 0 24497789.810 -4576014.830 5489913.480 10 0 60236 52200.00000 0 23632993.495 -4436897.917 8547826.695 10 0 60236 53100.00000 0 22442387.864 -4095595.136 11439916.409 10 0 60236 54000.00000 0 20972882.083 -3517534.753 14110106.271 10 0 60236 54900.00000 0 19279455.941 -2678417.471 16506632.016 10 0 60236 55800.00000 0 17422892.887 -1565494.626 18583039.105 10 0 60236 56700.00000 0 15467291.072 -178360.123 20299077.081 10 0 60236 57600.00000 0 13477456.015 1470777.911 21621474.058 10 0 60236 58500.00000 0 11516283.213 3357358.073 22524577.058 10 0 60236 59400.00000 0 9642239.106 5445249.607 22990846.471 10 0 60236 60300.00000 0 7907044.492 7688027.980 23011195.592 10 0 60236 61200.00000 0 6353656.044 10030690.512 22585168.898 10 0 60236 62100.00000 0 5014629.177 12411742.248 21720955.559 10 0 60236 63000.00000 0 3910929.695 14765566.830 20435237.588 10 0 60236 63900.00000 0 3051243.220 17024985.087 18752874.901 10 0 60236 64800.00000 0 2431810.745 19123895.994 16706432.510 10 0 60236 65700.00000 0 2036796.868 20999890.818 14335558.019 10 0 60236 66600.00000 0 1839175.010 22596731.838 11686220.478 10 0 60236 67500.00000 0 1802092.264 23866592.271 8809824.478 10 0 60236 68400.00000 0 1880656.180 24771963.546 5762215.979 10 0 60236 69300.00000 0 2024067.872 25287149.538 2602598.825 10 0 60236 70200.00000 0 2178010.812 25399284.453 -607617.058 10 0 60236 71100.00000 0 2287193.665 25108831.011 -3806013.142 10 0 60236 72000.00000 0 2297938.670 24429537.513 -6930381.531 10 0 60236 72900.00000 0 2160704.875 23387855.080 -9919941.515 10 0 60236 73800.00000 0 1832438.163 22021839.376 -12716528.941 10 0 60236 74700.00000 0 1278647.311 20379583.010 -15265734.354 10 0 60236 75600.00000 0 475116.884 18517244.687 -17517967.084 10 0 60236 76500.00000 0 -590816.696 16496758.200 -19429424.030 10 0 60236 77400.00000 0 -1919480.985 14383317.795 -20962943.976 10 0 60236 78300.00000 0 -3498609.456 12242745.659 -22088730.775 10 0 60236 79200.00000 0 -5303621.398 10138851.953 -22784931.495 10 0 60236 80100.00000 0 -7298428.913 8130897.889 -23038058.603 10 0 60236 81000.00000 0 -9436737.950 6271267.622 -22843248.376 10 0 60236 81900.00000 0 -11663789.584 4603445.670 -22204350.987 10 0 60236 82800.00000 0 -13918469.224 3160383.556 -21133850.878 10 0 60236 83700.00000 0 -16135696.115 1963322.781 -19652619.315 10 0 60236 84600.00000 0 -18248993.708 1021121.990 -17789504.153 10 0 60236 85500.00000 0 -20193133.850 330115.004 -15580764.916 10 0 60237 0.00000 0 -21906744.525 -125495.924 -13069364.523 10 0 60237 900.00000 0 -23334773.303 -372729.946 -10304130.060 10 0 60237 1800.00000 0 -24430701.574 -448439.817 -7338802.469 10 0 60237 2700.00000 0 -25158420.284 -397507.107 -4230989.247 10 0 60237 3600.00000 0 -25493686.720 -270697.118 -1041044.013 10 0 60237 4500.00000 0 -25425102.707 -122265.373 2169106.346 10 0 60237 5400.00000 0 -24954573.600 -7417.543 5337163.687 10 0 60237 6300.00000 0 -24097229.365 20269.229 8401666.306 10 0 60237 7200.00000 0 -22880811.554 -88645.774 11303178.691 10 0 60237 8100.00000 0 -21344552.350 -377135.975 13985440.359 10 0 60237 9000.00000 0 -19537592.855 -879652.262 16396451.753 10 0 60237 9900.00000 0 -17517006.942 -1620430.269 18489476.515 10 0 60237 10800.00000 0 -15345513.106 -2612231.802 20223941.375 10 0 60237 11700.00000 0 -13088969.449 -3855573.803 21566216.915 10 0 60237 12600.00000 0 -10813755.661 -5338477.979 22490264.816 10 0 60237 13500.00000 0 -8584150.236 -7036752.545 22978139.736 10 0 60237 14400.00000 0 -6459811.129 -8914795.584 23020336.627 10 0 60237 15300.00000 0 -4493463.701 -10926887.842 22615977.001 10 0 60237 16200.00000 0 -2728891.107 -13018922.600 21772830.536 10 0 60237 17100.00000 0 -1199309.824 -15130502.044 20507171.234 10 0 60237 18000.00000 0 73802.809 -17197314.145 18843470.295 10 0 60237 18900.00000 0 1081380.846 -19153692.213 16813930.775 10 0 60237 19800.00000 0 1826914.225 -20935251.234 14457872.072 10 0 60237 20700.00000 0 2326059.876 -22481491.460 11820975.162 10 0 60237 21600.00000 0 2605736.110 -23738260.589 8954402.348 10 0 60237 22500.00000 0 2702738.705 -24659971.222 5913807.872 10 0 60237 23400.00000 0 2661937.368 -25211480.261 2758258.281 10 0 60237 24300.00000 0 2534129.137 -25369550.533 -450916.583 10 0 60237 25200.00000 0 2373640.149 -25123832.380 -3651319.380 10 0 60237 26100.00000 0 2235778.013 -24477323.156 -6780704.032 10 0 60237 27000.00000 0 2174243.639 -23446284.591 -9778192.951 10 0 60237 27900.00000 0 2238613.212 -22059620.872 -12585468.269 10 0 60237 28800.00000 0 2471998.174 -20357743.203 -15147912.969 10 0 60237 29700.00000 0 2908983.427 -18390968.436 -17415679.031 10 0 60237 30600.00000 0 3573932.170 -16217519.017 -19344661.254 10 0 60237 31500.00000 0 4479730.072 -13901208.273 -20897357.485 10 0 60237 32400.00000 0 5627022.782 -11508908.177 -22043598.476 10 0 60237 33300.00000 0 7003979.815 -9107905.632 -22761133.333 10 0 60237 34200.00000 0 8586595.521 -6763257.754 -23036059.458 10 0 60237 35100.00000 0 10339515.201 -4535256.353 -22863089.081 10 0 60237 36000.00000 0 12217352.278 -2477106.886 -22245647.600 10 0 60237 36900.00000 0 14166441.832 -632918.001 -21195802.232 10 0 60237 37800.00000 0 16126957.462 963915.533 -19734022.691 10 0 60237 38700.00000 0 18035303.217 2291870.300 -17888778.747 10 0 60237 39600.00000 0 19826680.737 3341945.223 -15695982.660 10 0 60237 40500.00000 0 21437724.392 4117780.493 -13198287.414 10 0 60237 41400.00000 0 22809094.255 4635241.198 -10444254.440 10 0 60237 42300.00000 0 23887918.479 4921484.792 -7487407.128 10 0 60237 43200.00000 0 24629982.870 5013553.295 -4385188.650 10 0 60237 44100.00000 0 25001576.087 4956550.951 -1197844.508 10 0 60237 45000.00000 0 24980913.291 4801485.462 2012748.201 10 0 60237 45900.00000 0 24559078.783 4602864.966 5184281.857 10 0 60237 46800.00000 0 23740448.400 4416153.020 8255226.233 10 0 60237 47700.00000 0 22542574.200 4295189.655 11166019.660 10 0 60237 48600.00000 0 20995536.498 4289687.792 13860220.416 10 0 60237 49500.00000 0 19140790.467 4442910.899 16285596.243 10 0 60237 50400.00000 0 17029555.513 4789629.991 18395131.257 10 0 60237 51300.00000 0 14720814.443 5354446.177 20147931.350 10 0 60237 52200.00000 0 12279005.427 6150549.618 21510011.230 10 0 60237 53100.00000 0 9771502.251 7178967.434 22454948.572 10 0 60237 54000.00000 0 7265986.871 8428332.809 22964393.306 10 0 60237 54900.00000 0 4827822.473 9875185.876 23028422.684 10 0 60237 55800.00000 0 2517535.154 11484794.953 22645735.526 10 0 60237 56700.00000 0 388507.742 13212465.122 21823681.883 10 0 60237 57600.00000 0 -1515019.470 15005280.937 20578127.205 10 0 60237 58500.00000 0 -3159558.821 16804211.821 18933153.032 10 0 60237 59400.00000 0 -4523530.014 18546493.499 16920599.152 10 0 60237 60300.00000 0 -5597911.963 20168186.932 14579455.116 10 0 60237 61200.00000 0 -6386365.049 21606808.368 11955111.915 10 0 60237 62100.00000 0 -6904819.133 22803920.663 9098487.406 10 0 60237 63000.00000 0 -7180545.005 23707577.217 6065041.789 10 0 60237 63900.00000 0 -7250748.760 24274515.386 2913701.840 10 0 60237 64800.00000 0 -7160748.833 24472006.465 -294285.280 10 0 60237 65700.00000 0 -6961813.289 24279283.516 -3496546.111 10 0 60237 66600.00000 0 -6708749.535 23688485.907 -6630799.098 10 0 60237 67500.00000 0 -6457349.371 22705079.805 -9636072.452 10 0 60237 68400.00000 0 -6261798.515 21347736.022 -12453897.184 10 0 60237 69300.00000 0 -6172161.386 19647669.619 -15029451.178 10 0 60237 70200.00000 0 -6232048.696 17647468.508 -17312631.355 10 0 60237 71100.00000 0 -6476567.576 15399459.910 -19259032.515 10 0 60237 72000.00000 0 -6930641.834 12963683.027 -20830813.475 10 0 60237 72900.00000 0 -7607774.128 10405552.754 -21997433.583 10 0 60237 73800.00000 0 -8509303.001 7793312.076 -22736245.442 10 0 60237 74700.00000 0 -9624186.641 5195379.484 -23032932.606 10 0 60237 75600.00000 0 -10929323.001 2677701.808 -22881784.154 10 0 60237 76500.00000 0 -12390393.216 301222.404 -22285801.254 10 0 60237 77400.00000 0 -13963193.225 -1880430.471 -21256634.038 10 0 60237 78300.00000 0 -15595398.003 -3822939.696 -19814350.360 10 0 60237 79200.00000 0 -17228684.617 -5492897.718 -17987041.159 10 0 60237 80100.00000 0 -18801125.236 -6868942.038 -15810270.263 10 0 60237 81000.00000 0 -20249749.836 -7942381.963 -13326379.413 10 0 60237 81900.00000 0 -21513171.201 -8717292.045 -10583662.066 10 0 60237 82800.00000 0 -22534162.113 -9210070.093 -7635422.150 10 0 60237 83700.00000 0 -23262076.559 -9448479.981 -4538936.175 10 0 60237 84600.00000 0 -23655013.348 -9470221.177 -1354339.020 10 0 60237 85500.00000 0 -23681631.296 -9321086.630 1856544.672 99